Presure
161 159 148 139 147 149 137 123 109 128 125 130 131 142 146 123 129 144 131 154 142 157 151 163 156 141 143 130 129 141 125 136 144 132 151 136 142 211 155 174 191 149 194
144 156 151 127 149 149 128 160 118 130 127 127 136 137 142 139 129 134 137 132 163 162 157 167 154 128 134 124 148 123 130 137 138 143 155 146 144 144 164 144 191 237 236
171 169 154 155 113 125 125 125 141 123 129 134 147 116 140 139 127 136 151 140 142 158 154 164 155 140 134 139 133 138 134 134 146 144 137 148 144 127 123 147 176 171 229
143 167 140 156 161 153 143 147 173 152 159 152 151 160 147 142 150 128 156 136 158 159 159 148 157 149 133 157 155 136 132 136 155 149 134 136 150 143 167 214 210 192 250
169 148 165 162 123 124 136 146 91 157 150 171 129 127 125 166 133 102 141 144 162 165 159 149 168 138 129 143 145 141 122 144 136 145 140 180 155 159 161 188 207 211 272
164 155 166 169 160 169 158 157 162 119 171 167 99 130 160 143 148 125 127 141 165 171 155 154 177 135 148 135 151 126 137 142 141 147 147 139 132 229 199 154 197 242 257
171 157 161 162 170 151 148 168 153 162 115 126 122 123 125 117 141 152 153 145 158 171 154 157 155 135 135 144 131 134 136 132 148 166 146 141 151 193 166 200 226 240 253
168 157 160 164 163 170 167 152 149 155 116 123 143 142 143 137 133 140 158 150 163 165 156 174 161 151 134 140 129 131 147 131 172 126 166 116 171 121 144 223 247 231 280
154 168 134 159 178 132 116 133 137 120 120 126 133 132 124 139 135 142 161 150 170 165 162 151 165 149 132 138 133 135 144 110 144 142 147 171 154 164 195 207 228 227 262
163 162 164 167 137 129 135 170 130 120 146 133 127 154 133 174 129 144 155 138 165 176 177 184 139 145 131 132 142 137 145 123 152 167 150 190 152 178 146 209 229 237 302
166 176 159 131 125 124 121 138 126 131 161 131 129 136 136 157 144 153 137 171 161 178 176 183 140 144 136 125 142 133 120 145 162 173 127 142 122 185 194 221 241 231 247
143 135 134 134 137 140 143 132 141 146 126 131 154 132 148 161 153 159 148 172 170 176 182 184 139 134 130 142 132 172 102 148 135 144 188 169 216 191 205 222 230 236 267
180 143 114 137 148 137 140 155 129 134 127 142 141 135 135 146 150 149 173 180 183 176 120 143 124 131 144 150 173 143 149 156 156 125 171 178 205 202 226 221 234 309 278
145 165 95 137 143 148 162 140 168 130 138 105 140 128 156 166 166 172 179 190 179 167 140 136 130 141 139 148 142 137 157 170 143 153 170 200 206 251 243 223 225 256 325
129 141 143 131 127 129 183 156 137 139 135 178 127 188 152 187 190 190 187 187 186 132 135 134 132 136 133 140 162 187 164 164 201 179 173 185 201 239 250 229 297 331 319
142 130 132 158 138 132 165 143 185 171 186 151 186 180 181 187 185 185 195 198 185 141 137 141 125 141 144 138 144 139 176 139 142 165 194 201 237 212 230 243 274 311 319
174 128 181 175 175 179 172 140 175 165 184 178 179 174 168 183 185 198 192 189 133 149 144 128 141 129 146 150 128 152 145 146 157 113 194 195 211 221 257 257 316 320 327
193 178 175 179 183 167 163 171 150 165 150 186 168 186 177 168 180 189 174 140 131 184 176 152 126 139 145 140 133 177 161 193 134 187 195 209 231 231 251 301 259 310 336
186 172 171 181 175 150 144 175 157 155 165 176 181 189 187 191 179 179 152 129 141 134 163 142 165 131 155 142 150 169 179 186 125 196 186 185 230 233 272 313 314 312 343
188 191 164 167 179 160 162 158 185 170 182 161 160 195 188 180 158 153 142 134 119 151 137 142 150 134 151 175 148 190 149 223 156 213 252 242 224 256 287 304 300 334 345
206 205 202 190 192 193 194 168 165 174 158 199 187 184 144 158 159 182 136 143 140 220 129 152 154 101 112 143 156 180 130 112 206 188 233 229 227 242 315 308 317 362 347
216 166 200 212 195 206 191 198 194 173 197 197 153 175 143 151 141 124 140 124 145 165 129 172 151 149 154 186 189 170 160 186 224 223 247 249 250 273 310 312 315 400 389
170 147 215 185 160 177 166 201 196 188 152 167 147 168 133 135 140 141 155 163 186 144 136 153 175 134 168 174 197 153 234 213 227 220 223 231 319 284 301 308 318 400 370
130 144 152 152 208 213 213 207 155 177 151 131 159 199 142 137 144 154 152 142 118 173 190 177 159 158 191 177 217 217 219 228 241 248 253 228 245 300 308 287 311 379 347
227 226 130 127 163 131 157 159 175 173 133 121 133 173 156 154 151 138 132 162 179 167 175 158 192 201 234 214 203 241 202 233 227 240 246 275 303 309 306 312 329 348 340
174 138 230 151 189 151 137 140 126 135 125 148 170 152 143 142 139 158 178 190 197 161 166 155 182 216 212 229 244 209 257 223 229 253 312 291 307 301 305 316 369 340 321
Wind_Speed
44 44 38 34 37 36 32 32 28 39 42 44 44 41 42 46 49 48 56 48 46 46 49 51 53 52 54 51 56 64 54 67 70 80 83 81 90 102 107 106 111 89 91
30 45 41 32 42 39 32 39 36 42 45 47 45 46 46 47 55 49 56 62 52 51 51 58 51 49 55 50 57 55 64 64 77 86 83 92 99 101 106 88 112 124 120
47 47 46 46 25 37 37 39 41 43 47 48 47 40 50 50 58 57 52 59 59 53 50 58 56 56 57 59 59 67 68 79 79 86 89 95 90 72 48 100 104 114 120
37 51 36 46 50 45 44 45 47 47 49 49 50 53 51 53 57 60 57 65 57 56 53 51 61 54 56 66 71 68 75 83 79 87 85 88 104 98 110 123 117 118 131
52 43 54 53 35 37 43 45 30 51 49 53 51 54 57 56 60 50 63 61 59 61 54 56 69 56 53 62 64 70 68 80 85 92 94 96 102 112 114 114 122 119 136
56 55 56 58 52 55 51 51 55 45 55 53 33 58 54 56 56 70 71 64 62 68 55 55 76 52 57 67 61 67 83 83 84 92 102 96 57 127 117 111 122 135 138
60 56 55 56 60 47 47 57 54 53 48 57 59 61 66 60 63 59 61 64 60 72 55 58 63 54 62 64 66 75 81 76 86 90 100 86 111 109 107 110 133 139 139
65 56 59 60 55 61 54 55 56 55 52 61 56 60 62 68 67 71 64 63 66 67 57 81 64 58 56 63 69 77 86 79 93 56 101 31 103 44 95 136 136 133 135
57 73 52 60 70 45 45 53 52 56 58 63 65 70 67 71 74 71 68 67 73 67 62 63 78 58 62 64 75 84 91 49 101 96 103 97 107 117 125 134 138 133 134
74 70 67 67 52 53 56 68 60 60 57 68 69 63 65 77 61 73 70 74 70 80 81 89 56 63 66 71 79 85 97 67 104 106 97 109 95 114 83 138 143 141 109
70 83 60 62 57 57 57 58 64 68 65 65 69 72 73 72 75 78 79 77 69 84 77 84 58 62 71 64 77 72 56 99 98 100 77 77 45 119 129 146 145 138 136
59 63 64 65 64 62 62 68 68 71 68 73 78 71 75 76 77 78 78 82 77 79 87 91 53 64 64 83 71 86 28 100 86 102 118 114 134 124 140 142 142 141 130
94 67 56 68 64 65 69 64 72 75 72 78 78 79 76 81 81 80 85 92 95 78 52 53 54 64 81 85 95 93 99 95 105 83 102 115 130 135 134 138 145 112 133
70 81 41 71 72 76 81 76 88 76 78 39 82 75 80 86 85 86 92 102 85 73 61 62 58 81 68 86 88 82 102 99 95 105 114 132 138 152 144 135 133 142 92
69 74 75 73 74 75 101 88 79 81 69 98 75 104 86 104 105 102 100 98 99 60 53 62 64 75 67 81 92 101 105 94 118 110 112 120 132 146 147 137 122 87 89
79 71 74 86 81 73 93 84 107 99 108 90 105 98 101 104 98 98 109 112 94 62 69 76 59 80 84 83 85 87 102 80 95 98 122 134 150 139 144 143 138 99 90
102 72 108 106 102 103 95 82 102 92 106 99 98 94 89 100 100 115 109 109 55 71 76 53 74 59 94 94 71 100 87 103 106 40 127 131 145 141 150 119 96 90 89
114 104 100 107 112 98 92 95 86 91 88 108 91 106 99 83 91 105 67 56 54 94 79 76 57 76 97 89 77 107 113 120 74 123 135 146 154 148 147 115 130 94 90
113 104 104 109 103 91 86 100 89 87 89 95 103 113 108 117 89 99 68 48 65 52 75 76 90 71 92 83 95 116 113 121 68 129 102 107 148 147 139 98 94 93 87
119 120 97 98 110 101 93 89 110 94 102 71 71 122 118 93 70 67 70 52 56 74 71 81 92 75 83 105 90 120 92 147 97 144 154 151 144 150 125 102 99 93 85
130 130 130 120 121 124 124 89 75 93 65 128 117 96 73 67 83 83 46 63 65 138 53 95 101 29 65 87 101 114 87 44 139 118 149 145 139 149 92 93 92 94 82
123 70 116 129 110 127 116 122 109 69 110 120 62 89 66 80 57 49 62 57 82 85 70 93 92 90 109 116 124 113 103 117 142 150 150 131 145 122 90 90 91 71 56
83 62 118 87 60 83 79 122 101 107 74 77 77 91 45 50 65 67 79 88 107 84 77 86 110 76 109 106 127 95 156 144 145 146 138 140 93 111 92 89 90 60 56
59 73 68 71 114 125 120 119 75 96 82 51 90 121 69 65 70 91 89 72 72 107 110 110 105 112 133 115 153 148 146 151 154 152 150 137 140 94 90 91 88 56 52
124 124 69 61 85 62 74 75 88 94 61 55 64 99 89 90 85 58 62 105 115 110 104 103 126 141 157 145 131 159 122 145 146 153 151 121 93 88 87 89 87 57 52
87 83 131 80 107 84 80 79 61 69 61 89 95 86 79 78 82 94 117 128 132 107 106 99 123 149 148 159 163 134 154 143 146 151 93 102 90 86 86 93 64 55 54
Wind_Direction
252 254 263 274 276 275 279 286 289 289 295 297 302 304 305 318 312 312 312 318 319 319 314 326 316 311 308 323 325 315 321 321 314 320 313 319 322 335 319 321 330 332 338
263 258 264 265 273 271 280 279 296 288 292 298 297 302 304 304 309 316 307 312 319 318 316 325 307 307 314 315 307 318 322 321 320 321 315 315 324 323 317 325 329 343 342
256 259 260 266 285 279 282 285 287 297 293 292 298 310 302 301 309 305 310 310 310 315 308 322 311 307 311 308 316 314 321 319 314 314 323 318 325 328 330 325 326 324 337
259 259 261 270 269 274 278 282 277 289 287 290 292 294 297 297 302 310 311 308 314 314 312 301 310 302 312 312 313 315 317 315 316 318 319 322 318 322 322 341 340 329 341
254 265 261 264 282 289 275 278 281 284 288 287 301 301 308 298 299 316 302 303 312 315 308 310 315 303 317 302 312 311 311 312 318 317 321 330 320 316 324 329 338 341 340
257 268 264 264 270 269 277 280 281 302 286 287 288 296 294 294 299 309 311 304 311 316 298 310 318 305 295 311 307 312 313 312 315 313 315 321 320 340 337 322 332 342 340
251 268 268 271 269 273 276 278 283 282 302 295 302 304 303 312 295 300 300 302 308 313 298 302 309 299 308 302 309 309 312 316 316 312 314 317 319 333 323 341 339 341 341
253 266 270 272 273 277 276 277 281 281 298 295 283 285 288 294 303 300 302 303 308 308 301 315 306 306 304 306 309 312 309 318 324 315 316 319 327 325 322 339 341 339 335
268 262 272 272 269 269 277 275 275 295 294 292 289 291 302 292 298 298 303 301 308 305 304 303 312 296 308 304 312 316 309 305 318 319 320 324 317 320 332 336 337 338 339
261 268 272 273 269 274 271 280 277 291 276 283 292 288 293 297 297 297 299 307 303 309 312 312 305 307 306 310 305 313 311 316 314 315 323 333 323 325 332 336 337 340 333
260 260 266 270 279 280 285 275 284 282 285 289 295 292 296 294 295 299 303 304 299 308 309 309 299 298 303 309 309 313 316 315 317 320 318 330 330 329 332 335 338 337 337
257 262 263 266 269 267 267 277 271 277 292 291 288 294 288 291 291 295 299 304 302 305 308 308 300 306 309 304 310 312 302 313 315 319 327 324 335 328 333 335 336 337 336
259 256 278 268 264 270 269 273 284 281 290 282 287 292 295 291 291 294 304 304 304 304 295 298 304 310 301 304 315 313 313 315 314 316 323 324 330 330 336 332 335 330 334
258 267 275 265 265 267 276 271 280 284 281 283 285 295 286 294 294 300 301 302 300 295 298 301 308 302 311 305 312 312 311 321 317 319 320 333 332 335 335 332 331 335 331
262 264 264 267 271 274 276 279 277 278 277 287 290 291 285 295 297 297 299 302 306 298 298 298 311 298 311 303 308 322 311 317 327 321 319 324 332 333 335 332 329 330 330
259 267 268 266 268 272 274 272 279 282 284 286 288 290 291 293 294 298 300 300 301 290 293 295 294 303 302 309 312 310 319 317 316 325 328 331 331 330 332 333 331 328 330
259 269 263 265 268 270 272 277 279 280 284 284 286 286 290 292 296 296 299 299 291 289 288 301 303 311 304 308 305 311 319 319 316 317 327 327 330 330 332 325 328 331 332
259 262 264 266 268 271 272 272 279 277 283 284 284 287 290 289 295 296 297 283 301 303 307 297 302 313 311 303 308 322 313 323 318 319 325 325 329 329 330 328 329 328 334
258 260 263 263 264 270 276 270 275 279 282 283 287 287 291 290 292 291 276 296 290 314 310 303 299 306 307 315 314 311 319 321 313 323 327 326 328 328 328 324 327 328 331
258 259 264 264 266 268 271 275 276 279 281 277 280 286 288 293 275 277 282 291 284 296 313 308 299 302 314 313 307 319 316 322 311 325 324 326 327 329 325 325 326 331 330
258 259 260 265 267 268 270 272 282 279 273 280 282 282 274 275 284 299 307 302 307 299 303 297 296 291 313 311 314 309 302 308 321 317 325 324 325 325 323 324 327 328 326
256 271 264 262 268 267 271 273 274 283 277 280 280 281 268 269 285 296 297 293 294 302 296 307 301 304 306 309 314 313 311 318 317 320 323 320 325 322 324 326 329 323 319
274 268 261 263 274 274 269 271 279 274 261 279 269 278 290 300 308 304 291 296 297 303 294 305 300 302 313 311 311 312 315 318 318 320 319 321 319 323 322 323 330 321 319
268 253 255 254 265 262 265 269 260 273 262 301 269 279 295 306 303 286 292 308 290 297 305 299 298 302 306 305 312 315 316 317 318 317 319 319 320 318 322 319 326 320 317
256 257 279 278 257 287 263 269 282 272 298 278 286 292 285 291 292 301 282 297 297 292 296 303 303 307 306 308 309 313 309 316 316 318 318 315 316 319 321 324 323 314 314
260 269 258 274 266 272 290 289 276 291 283 288 279 280 299 302 298 297 287 294 301 294 303 300 303 304 306 308 309 308 310 313 315 314 314 313 315 318 321 325 311 309 311